Regional Weather Roundup
Issued by NWS Portland, ME

Home | Current Version | Previous Version | Text Only | Print | Product List | Glossary On
Versions: 1 2 3 4 5 6 7 8 9 10 11 12 13 14 15 16 17 18 19 20 21 22 23 24 25 26 27 28 29 30 31 32 33 34 35 36 37 38 39 40 41 42 43 44 45 46 47 48 49 50
000
ASUS41 KGYX 261310
RWRGYX
WEATHER ROUNDUP FOR MAINE AND NEW HAMPSHIRE
NATIONAL WEATHER SERVICE GRAY ME
900 AM EDT THU APR 26 2018

MEZ002-005-006-010-012-015-018-020-021-024-026-027-029-261400-
MAINE

CITY           SKY/WX    TMP DP  RH WIND       PRES   REMARKS
PORTLAND       LGT RAIN  48  48 100 VRB5      29.58S FOG
SANFORD        RAIN      48  48 100 N3        29.57F
BAR HARBOR     FOG       50  49  96 S12       29.60F VSB 1
WISCASSET      LGT RAIN  48  48 100 CALM      29.58F FOG
ROCKLAND       RAIN      47  47 100 E3        29.59F FOG
FRYEBURG       LGT RAIN  49  49 100 CALM      29.58S FOG
LEWISTONAUBURN RAIN      49  48  97 SW3       29.57F
AUGUSTA        LGT RAIN  49  49 100 SE3       29.56F FOG
WATERVILLE     RAIN      50  50 100 CALM      29.55F
BANGOR         CLOUDY    52  51  97 SE7       29.59F FOG
GREENVILLE       N/A     48  48 100 SE12      29.55F
MILLINOCKET    LGT RAIN  52  51  97 E5        29.61F VSB 1
HOULTON        LGT RAIN  53  52  96 S7        29.62F FOG
PRESQUE ISLE   CLOUDY    52  51  97 SE13      29.62F
FRENCHVILLE    LGT RAIN  48  46  93 SE14      29.61F VSB 1/4
CARIBOU        CLOUDY    52  49  89 SE10      29.62F
$$

NHZ002-005-008-009-011-012-014-261400-
NEW HAMPSHIRE

CITY           SKY/WX    TMP DP  RH WIND       PRES   REMARKS
PORTSMOUTH     LGT RAIN  49  49 100 N5        29.55F FOG
ROCHESTER      CLOUDY    49  49 100 N5        29.56F
NASHUA         CLOUDY    52  52 100 W7        29.59R
MANCHESTER     LGT RAIN  53  51  93 W7        29.56F FOG
CONCORD        LGT RAIN  51  49  92 W3        29.58S FOG
LACONIA        LGT RAIN  49  48  97 NE5       29.57F
PLYMOUTH       CLOUDY    49  48  97 CALM      29.58R
BERLIN         LGT RAIN  48  47  96 SW3       29.55F
WHITEFIELD     RAIN      49  48  97 CALM      29.56S FOG
JAFFREY        CLOUDY    51  51 100 SW3       29.59S
KEENE          LGT RAIN  52  52 100 CALM      29.60R
LEBANON        LGT RAIN  52  48  86 S5        29.58R FOG
MT WASHINGTON  LGT RAIN  39  39 100 SW18        N/A  VSB 1/8
$$

VTZ005-007-008-261400-
VERMONT

CITY           SKY/WX    TMP DP  RH WIND       PRES   REMARKS
ST JOHNSBURY     N/A     49  49 100 MISG      29.55S
MONTPELIER     LGT RAIN  49  49 100 CALM      29.60
BURLINGTON     LGT RAIN  52  50  93 NW6       29.58S FOG
$$

MAZ007-012-024-CTZ003-RIZ002-NYZ038-NYZ072-261400-
SOUTHERN NEW ENGLAND AND NY

CITY           SKY/WX    TMP DP  RH WIND       PRES   REMARKS
BOSTON         CLOUDY    57  56  96 SW10      29.57S
WORCESTER      LGT RAIN  53  52  96 W12       29.59S
NANTUCKET      FOG       50  50 100 SW10      29.63S VSB 1/4
PROVIDENCE     CLOUDY    57  56  96 SW7       29.61R
HARTFORD       PTSUNNY   56  50  80 W5        29.63R
ALBANY         PTSUNNY   51  43  74 W9        29.69R
NEW YORK CITY  FAIR      57  46  66 W18G25    29.69R
$$

ANZ081-ANZ082-ANZ150-NHZ014-MEZ023>029-261400-
COASTAL MARINE OBSERVATIONS

STATION/POSITION TIME  TEMP    WIND        PRES    WAVE
                       AIR SEA DIR/SP/G            HT/PER
                 (UTC) (F)     (DEG/KT/KT) (MB)    (FT/S)
MOUNT DESERT ROC 1300   45     130/ 18/ 19 1002.2F
MATINICUS ROCK   1200   45     150/ 20/ 21 1001.4F
ISLE OF SHOALS   1200   46     170/ 10/ 11 1001.1R
JEFFREYS LEDGE   1206      43                N/A     6/ 8
CASHES LEDGE BUO 1250   45 42              1001.2F   7/10
$$

.............KEY..............
   WCI - WIND CHILL
   TC  - TEMPERATURE IN CELSIUS
   VSB - VISIBILITY IN MILES
   HX  - HEAT INDEX
   FAIR- INDICATES FEW OR NO CLOUDS BELOW 12,000 FT, WITH NO
         SIGNIFICANT WEATHER AND/OR OBSTRUCTIONS TO VISIBILITY.






USA.gov is the U.S. government's official web portal to all federal, state and local government web resources and services.